Wetbulb
72.63 75.00 77.44 76.65 77.15 77.20 77.74 78.02 78.41 77.67 78.26 77.99 77.90 77.99 77.99 78.07 77.50 77.59 77.79 77.53 77.99 77.50 77.57 77.09 77.20 76.98 76.51 76.27 76.10 76.56 76.03 76.28 76.37 76.66 76.77 76.83 76.50 77.02 76.18 75.85 75.69 74.41 76.34
74.25 74.92 77.81 76.43 76.69 77.18 77.66 77.76 77.96 77.55 78.31 78.16 78.04 77.95 77.19 77.21 77.06 77.03 77.44 76.96 76.98 77.02 77.33 77.48 77.29 77.36 76.82 76.70 76.40 76.74 76.58 76.83 76.76 76.84 74.88 75.93 76.73 76.53 76.22 76.08 74.58 72.72 75.84
74.10 74.64 75.39 77.37 76.79 77.15 77.30 77.31 77.67 77.42 77.94 77.75 77.44 77.20 77.04 77.54 77.35 77.20 76.94 77.28 77.41 77.25 77.18 77.44 77.34 77.34 77.17 76.78 76.45 76.43 76.40 76.53 76.51 73.49 71.39 67.42 72.11 75.88 76.16 75.43 72.97 74.33 76.66
73.59 74.70 74.40 77.50 77.24 76.07 76.24 76.29 76.69 77.40 77.13 76.89 76.59 76.62 76.77 76.74 76.73 76.31 76.58 76.99 77.46 77.36 77.57 77.18 77.02 77.07 76.74 76.46 76.62 76.32 76.07 76.19 75.60 72.59 69.06 70.04 70.73 74.77 75.47 75.59 73.64 75.63 75.39
73.69 74.78 74.88 77.02 77.43 76.36 76.34 76.40 76.19 76.25 76.62 76.83 76.55 76.25 76.51 76.16 76.23 75.89 76.95 77.61 77.50 77.71 77.48 77.30 76.75 76.52 76.22 75.97 76.00 76.00 75.99 75.52 73.20 69.07 68.63 69.64 69.34 74.14 75.26 75.68 76.02 76.10 75.96
73.14 74.63 76.22 76.24 75.60 76.18 75.90 75.74 75.57 76.27 76.09 75.72 75.56 75.31 75.51 74.49 75.49 76.49 76.61 76.99 77.24 77.35 76.96 76.44 76.41 76.19 76.30 76.11 76.08 76.00 75.89 75.35 70.38 66.77 67.38 67.69 69.16 71.36 74.28 74.93 75.50 75.33 76.05
72.67 73.12 73.84 75.84 76.13 75.88 75.84 76.05 75.20 74.94 74.74 75.38 74.69 73.36 73.99 74.13 73.95 76.83 77.25 77.32 77.15 77.02 76.47 76.14 76.14 76.16 75.77 75.43 75.97 75.85 76.22 75.63 69.46 68.44 68.78 67.91 69.25 73.75 74.65 74.71 74.67 74.75 75.49
73.13 72.85 73.16 74.39 74.74 75.52 75.75 75.31 75.47 74.75 73.52 75.22 73.95 72.66 73.90 74.73 74.74 76.51 76.82 76.74 76.64 76.44 75.94 75.61 75.63 75.49 75.30 75.94 76.91 77.66 77.33 76.50 71.25 68.77 68.47 69.61 71.02 73.83 73.01 73.96 74.30 73.95 73.99
73.21 72.98 72.82 73.05 73.15 73.94 74.47 74.45 74.50 74.70 74.67 74.81 72.90 73.13 72.96 74.85 75.25 76.70 76.98 76.78 76.19 75.85 75.57 75.60 75.63 75.75 76.39 76.99 77.55 77.77 77.52 76.94 68.96 71.19 72.39 72.01 71.41 73.71 71.98 73.75 73.71 73.89 73.70
72.17 72.21 73.07 73.66 74.77 75.51 73.87 74.27 74.07 73.98 73.77 73.52 74.26 71.88 73.52 74.87 76.48 77.10 77.61 77.16 76.13 76.22 76.30 76.13 76.50 77.12 77.46 77.76 78.06 77.56 76.01 75.22 72.11 69.50 72.07 73.67 74.88 73.50 73.62 73.53 73.86 73.83 73.55
72.56 72.61 73.64 74.44 74.55 75.24 74.73 74.09 73.96 74.28 73.94 73.59 72.82 73.70 73.97 74.12 74.94 76.41 76.97 77.08 77.05 76.63 76.66 76.78 77.80 78.01 78.28 76.56 73.01 76.07 75.42 69.05 70.10 72.16 73.22 74.37 74.53 73.95 74.58 73.45 72.93 73.18 73.97
70.91 72.45 74.43 73.99 73.23 73.71 73.39 73.38 72.81 72.69 71.71 71.57 72.75 72.78 73.44 74.52 75.59 74.85 76.92 77.28 77.22 77.00 77.03 77.91 78.48 78.42 77.50 69.97 68.85 72.54 72.46 71.56 72.20 73.49 73.33 75.29 75.24 75.04 75.36 74.95 74.81 74.89 74.77
71.38 71.90 73.34 73.52 73.91 72.14 70.42 70.56 72.12 71.29 71.30 71.50 72.14 72.50 71.99 74.96 74.41 75.58 75.84 74.77 75.14 76.44 75.38 76.23 74.67 72.12 73.78 72.29 70.77 72.68 73.23 73.16 72.70 73.64 75.06 76.28 76.17 75.48 75.52 75.49 75.35 75.05 75.05
70.49 71.86 72.86 73.64 72.53 71.66 70.23 70.56 70.40 69.76 71.26 71.18 72.18 71.71 72.33 73.99 74.93 73.09 73.88 74.12 74.91 74.66 74.39 75.21 71.37 69.30 72.40 77.18 75.25 71.26 71.51 72.38 72.95 73.69 74.35 76.33 76.83 76.55 75.94 75.11 75.14 75.05 75.43
70.51 71.33 72.25 73.05 72.72 72.13 71.41 69.89 69.20 69.43 70.68 72.42 74.02 74.18 72.57 73.56 74.21 74.72 76.84 76.23 76.49 77.31 76.98 76.88 73.04 71.36 76.62 76.45 75.51 74.95 72.60 75.08 74.37 73.81 72.93 76.59 76.54 76.92 76.35 76.38 76.32 75.83 75.45
70.39 70.72 71.62 73.52 73.62 72.62 71.54 69.99 69.45 70.34 71.22 72.28 71.96 74.32 72.17 72.38 76.59 76.38 75.85 76.18 77.16 77.90 77.02 77.30 78.02 77.75 72.50 74.30 74.76 75.55 74.99 75.55 75.40 73.14 72.99 74.94 76.74 76.79 76.74 76.45 76.34 75.91 75.48
69.58 70.47 70.82 72.83 73.54 73.44 72.68 71.31 71.68 72.34 72.09 72.91 73.14 74.36 77.15 74.22 78.36 78.73 76.21 77.24 76.77 79.01 78.87 78.14 77.57 69.85 68.24 71.37 71.42 71.34 76.05 76.33 75.84 74.95 74.00 73.11 75.18 77.10 76.85 77.45 77.09 76.88 76.44
70.92 70.31 71.77 72.69 72.60 73.01 72.99 74.73 73.67 72.55 73.33 71.78 71.38 75.64 78.02 76.84 78.86 78.51 77.33 76.40 77.54 77.93 78.31 76.21 70.11 68.15 66.33 68.88 68.18 69.42 74.43 76.40 76.43 75.93 74.59 73.52 73.32 74.06 76.64 77.19 76.94 76.88 76.80
71.10 71.54 72.12 72.12 72.41 72.35 73.85 73.91 74.85 75.09 74.19 73.31 73.75 74.94 78.27 77.69 78.05 78.62 76.30 78.32 79.07 77.64 73.48 70.88 65.09 64.66 67.10 68.53 70.46 70.16 71.40 75.13 74.38 75.00 75.11 74.96 73.71 73.31 73.97 76.97 76.57 76.79 76.70
71.63 72.14 71.97 71.36 72.90 72.88 73.29 73.91 75.41 73.41 74.37 73.59 72.73 74.74 77.99 77.95 77.96 78.76 77.07 78.28 79.17 77.10 76.47 74.75 67.28 68.65 71.87 68.64 71.23 70.83 70.48 73.94 73.70 74.03 73.06 74.12 73.62 74.31 73.46 73.96 75.38 75.26 76.90
71.13 72.06 72.71 71.65 72.58 72.00 71.82 71.86 73.53 69.05 69.43 71.65 74.34 74.64 78.66 77.98 78.41 78.79 77.17 77.53 78.68 77.74 78.70 76.89 77.08 74.77 74.58 67.61 68.76 68.20 67.80 67.75 70.96 74.17 72.75 73.59 75.58 73.00 73.53 73.67 74.22 73.79 75.25
70.73 70.84 71.72 72.09 73.37 72.83 72.68 74.09 75.22 71.69 69.52 74.22 74.53 72.45 77.93 78.50 78.33 77.15 78.19 76.51 78.17 73.82 76.85 77.63 77.74 75.29 73.40 72.31 68.42 67.90 61.12 63.72 67.94 68.45 70.46 73.03 74.03 74.66 75.07 75.21 73.82 73.98 74.26
71.15 70.79 71.80 72.84 73.47 72.17 72.32 74.97 74.76 75.38 75.35 73.82 73.83 75.73 75.93 77.99 76.76 77.95 78.68 77.61 77.06 75.91 75.66 77.89 78.23 75.91 72.60 73.23 72.54 67.65 61.44 59.82 65.10 70.66 70.94 71.85 73.44 73.36 74.67 76.46 74.72 75.39 75.21
71.18 72.31 73.06 72.64 72.82 73.44 75.44 74.28 74.72 70.25 69.77 72.68 75.31 76.00 75.73 78.02 76.97 77.10 79.05 78.68 77.68 78.40 77.20 77.81 76.95 76.78 75.17 72.30 72.55 69.87 65.61 67.45 66.28 63.39 71.31 69.58 69.53 70.50 68.97 74.29 75.30 75.16 73.27
71.25 71.86 73.15 73.39 73.29 74.31 75.41 75.42 73.73 72.78 72.28 73.14 75.61 73.74 75.13 78.25 78.15 76.95 78.85 79.32 79.69 78.65 78.25 77.30 77.61 77.01 76.42 75.02 72.93 72.05 70.00 68.68 70.09 67.28 66.95 66.58 66.73 66.93 71.29 73.72 73.79 74.62 73.79
70.46 71.21 72.53 73.33 73.65 74.61 74.25 75.03 75.22 74.81 74.72 73.42 70.67 68.36 64.79 73.65 75.91 77.67 77.75 79.01 79.60 79.05 78.67 77.58 78.27 77.85 77.70 76.76 76.07 74.13 71.34 67.85 67.45 67.57 67.72 66.07 67.38 69.81 70.49 76.01 74.70 75.58 75.01
MSLP
1011.88 1012.46 1012.75 1013.11 1013.33 1013.50 1013.62 1013.95 1014.21 1014.42 1014.68 1015.05 1015.26 1015.46 1015.57 1015.69 1015.82 1015.91 1015.93 1015.87 1015.92 1016.01 1016.24 1016.31 1016.21 1016.02 1015.95 1016.10 1016.36 1016.41 1016.29 1016.78 1016.83 1016.97 1017.28 1017.67 1017.70 1017.72 1018.19 1017.88 1017.98 1018.20 1018.72
1011.64 1012.43 1012.89 1013.30 1013.58 1013.80 1013.94 1014.24 1014.52 1014.84 1014.90 1015.26 1015.53 1015.70 1015.81 1015.94 1016.10 1016.15 1016.10 1016.07 1016.06 1016.21 1016.24 1016.21 1016.12 1015.93 1015.98 1016.18 1016.47 1016.53 1016.64 1016.88 1017.00 1017.20 1017.74 1018.06 1018.05 1018.19 1018.40 1018.05 1018.12 1018.14 1018.46
1011.94 1012.74 1013.00 1013.35 1013.79 1014.04 1014.34 1014.57 1014.76 1015.13 1015.23 1015.57 1015.76 1015.93 1016.08 1016.16 1016.34 1016.40 1016.21 1016.21 1016.09 1016.20 1016.26 1016.14 1016.04 1015.89 1016.02 1016.29 1016.61 1016.73 1016.90 1017.20 1017.54 1018.16 1018.26 1018.07 1019.22 1018.47 1018.25 1018.59 1018.62 1018.41 1018.44
1011.94 1012.51 1013.11 1013.56 1013.98 1014.31 1014.67 1014.99 1015.09 1015.29 1015.59 1015.69 1015.99 1016.25 1016.44 1016.61 1016.62 1016.51 1016.52 1016.39 1016.35 1016.33 1016.32 1016.21 1016.14 1015.99 1016.25 1016.49 1017.00 1017.38 1017.25 1017.48 1018.12 1019.39 1019.17 1018.81 1019.31 1019.10 1018.28 1018.51 1018.77 1018.51 1018.57
1011.57 1012.47 1013.49 1013.76 1014.15 1014.34 1015.04 1015.22 1015.67 1015.66 1015.87 1016.10 1016.18 1016.55 1016.74 1016.82 1016.90 1016.85 1016.65 1016.44 1016.34 1016.32 1016.34 1016.45 1016.37 1016.18 1016.38 1016.74 1017.43 1017.84 1017.44 1017.60 1019.36 1019.70 1019.97 1019.83 1019.18 1018.95 1018.52 1018.55 1018.24 1018.67 1018.88
1012.20 1013.12 1013.82 1014.06 1014.51 1014.33 1015.11 1015.41 1015.69 1016.00 1016.18 1016.38 1016.58 1016.77 1016.88 1016.93 1016.87 1016.89 1016.79 1016.58 1016.37 1016.37 1016.58 1016.77 1016.60 1016.29 1016.42 1017.07 1017.49 1017.56 1017.77 1017.74 1019.42 1018.16 1018.17 1019.23 1019.33 1019.07 1018.73 1018.45 1018.15 1018.64 1018.78
1012.92 1013.73 1014.27 1014.42 1014.68 1014.92 1015.26 1015.62 1015.90 1016.23 1016.42 1016.56 1016.89 1017.06 1017.29 1017.23 1017.08 1016.87 1016.71 1016.48 1016.39 1016.66 1017.02 1017.12 1016.64 1016.28 1016.58 1017.03 1017.29 1017.60 1017.41 1017.31 1019.49 1018.33 1018.66 1019.07 1018.88 1018.77 1018.72 1018.58 1018.37 1018.41 1018.56
1012.90 1013.89 1014.47 1014.59 1015.09 1015.35 1015.52 1016.00 1016.20 1016.31 1016.60 1016.77 1017.05 1017.39 1017.60 1017.47 1017.28 1016.90 1016.61 1016.39 1016.53 1016.89 1017.08 1016.93 1016.38 1016.08 1016.48 1016.49 1016.81 1017.18 1016.94 1017.46 1019.85 1018.47 1018.99 1017.87 1018.55 1018.59 1018.69 1018.51 1018.54 1018.50 1018.63
1013.29 1013.70 1014.46 1015.01 1015.46 1015.31 1015.49 1016.16 1016.31 1016.59 1016.62 1016.71 1017.34 1017.55 1017.70 1017.75 1017.28 1016.96 1016.67 1016.49 1016.76 1016.93 1016.86 1016.46 1016.15 1015.85 1016.13 1015.99 1016.34 1016.91 1017.32 1017.21 1019.05 1018.88 1018.84 1018.00 1018.28 1018.42 1018.39 1018.09 1018.23 1018.29 1018.45
1013.09 1013.54 1013.99 1014.59 1015.06 1015.45 1015.70 1016.17 1016.33 1016.58 1016.70 1017.05 1017.46 1017.75 1017.79 1017.60 1017.24 1016.82 1016.56 1016.54 1016.70 1016.69 1016.72 1016.68 1016.27 1015.88 1015.85 1015.59 1016.50 1017.64 1016.71 1016.75 1018.03 1018.47 1018.59 1017.44 1018.19 1017.82 1017.82 1017.95 1018.05 1018.12 1018.30
1013.28 1013.63 1013.91 1014.69 1015.17 1015.39 1015.87 1016.30 1016.52 1016.66 1016.79 1017.05 1017.57 1017.76 1017.74 1017.41 1016.92 1016.48 1016.32 1016.36 1016.25 1016.66 1016.99 1016.66 1016.18 1015.87 1016.09 1015.98 1014.63 1015.81 1016.38 1017.10 1017.15 1017.42 1016.98 1017.37 1017.44 1017.43 1017.43 1017.57 1017.80 1018.02 1018.49
1013.42 1013.85 1014.29 1014.57 1014.75 1015.58 1016.08 1016.53 1016.90 1016.96 1017.16 1017.28 1017.73 1018.10 1017.78 1017.50 1016.84 1016.04 1016.03 1015.90 1015.95 1016.60 1016.83 1016.40 1015.80 1016.08 1016.88 1015.76 1012.80 1016.57 1016.15 1016.82 1016.56 1016.91 1016.56 1016.93 1016.70 1016.72 1016.70 1017.08 1017.51 1018.02 1018.53
1013.02 1013.74 1014.39 1014.77 1014.89 1015.91 1016.46 1016.76 1017.04 1017.12 1017.18 1017.52 1017.96 1018.16 1017.29 1016.87 1016.81 1015.79 1015.74 1015.43 1015.60 1016.39 1016.46 1016.03 1015.99 1016.00 1016.25 1015.66 1014.47 1016.88 1015.48 1015.49 1015.86 1015.80 1016.64 1016.15 1016.08 1016.08 1016.25 1016.76 1017.38 1017.95 1018.38
1012.98 1013.57 1014.16 1014.70 1015.06 1015.82 1016.40 1016.46 1016.93 1017.04 1017.03 1017.33 1017.67 1017.82 1017.30 1016.89 1015.76 1015.48 1014.97 1014.62 1015.10 1015.70 1015.97 1016.28 1016.93 1017.17 1015.90 1014.17 1013.18 1014.52 1013.75 1015.12 1014.23 1015.71 1016.58 1016.09 1015.88 1015.94 1016.26 1016.83 1017.41 1017.80 1018.13
1012.53 1013.35 1013.98 1014.53 1015.14 1015.59 1016.15 1016.58 1016.78 1016.59 1016.60 1016.54 1016.55 1016.95 1017.24 1016.31 1016.25 1015.05 1014.42 1014.26 1014.47 1015.30 1015.92 1015.02 1017.38 1015.81 1015.04 1014.14 1013.50 1013.55 1013.92 1014.26 1014.80 1015.41 1016.49 1015.87 1015.65 1015.85 1016.25 1016.71 1017.19 1017.60 1017.92
1012.47 1013.14 1013.97 1014.44 1014.94 1015.34 1015.99 1016.22 1016.44 1016.40 1016.20 1016.38 1016.02 1016.32 1016.83 1016.11 1014.86 1014.58 1014.46 1014.50 1014.67 1015.39 1015.94 1016.06 1015.57 1015.76 1017.13 1015.81 1014.84 1014.04 1013.98 1014.04 1014.82 1015.66 1016.07 1016.05 1015.79 1015.82 1016.12 1016.62 1017.08 1017.42 1017.76
1012.13 1013.01 1013.59 1014.36 1014.77 1015.22 1015.66 1015.89 1016.35 1015.92 1016.05 1016.15 1015.80 1015.68 1015.01 1015.14 1014.62 1014.71 1014.61 1014.70 1014.93 1015.19 1015.51 1015.78 1016.04 1016.67 1018.60 1017.48 1017.12 1016.92 1014.42 1014.20 1014.26 1014.71 1015.72 1015.98 1016.12 1015.92 1015.99 1016.55 1017.21 1017.65 1017.86
1011.88 1012.98 1013.63 1013.89 1014.49 1014.99 1015.18 1015.52 1015.58 1015.87 1016.29 1016.43 1016.08 1014.99 1014.66 1014.86 1014.81 1014.76 1014.93 1014.89 1015.09 1015.30 1014.88 1016.09 1016.57 1017.25 1017.81 1017.97 1018.26 1017.98 1015.57 1014.36 1014.10 1014.08 1014.71 1015.59 1016.02 1016.10 1016.41 1016.73 1017.27 1017.74 1018.07
1011.88 1012.65 1013.29 1013.65 1014.04 1014.72 1015.13 1015.00 1015.28 1015.27 1016.14 1016.32 1015.56 1014.54 1014.74 1014.92 1014.92 1014.94 1014.81 1014.85 1015.15 1015.13 1016.03 1016.87 1016.37 1016.49 1018.14 1018.70 1018.69 1016.57 1016.01 1014.82 1014.70 1014.00 1014.54 1015.13 1015.68 1016.10 1016.56 1017.07 1017.34 1017.64 1017.98
1011.74 1012.60 1013.19 1013.69 1014.24 1014.79 1015.26 1015.23 1015.00 1014.98 1015.00 1015.01 1014.79 1014.52 1014.56 1014.76 1014.88 1014.98 1014.72 1014.82 1015.08 1015.22 1015.04 1015.35 1016.30 1016.64 1016.17 1017.44 1017.06 1016.66 1017.43 1015.75 1015.04 1015.63 1015.10 1015.69 1015.65 1016.11 1016.42 1016.87 1017.53 1017.83 1017.99
1011.74 1012.43 1013.08 1013.65 1014.35 1014.81 1015.16 1015.39 1015.23 1016.17 1016.14 1015.43 1014.98 1015.50 1014.55 1014.74 1014.84 1014.89 1015.06 1014.82 1014.86 1015.77 1015.24 1015.23 1015.95 1016.13 1015.88 1016.96 1016.63 1017.19 1017.75 1017.63 1016.65 1016.63 1015.74 1015.65 1015.21 1015.95 1016.34 1017.02 1017.09 1017.14 1017.60
1011.35 1012.37 1012.88 1013.56 1014.19 1014.56 1014.72 1014.85 1014.73 1015.18 1015.10 1015.01 1015.01 1015.72 1014.80 1014.70 1015.03 1015.05 1014.92 1014.90 1016.05 1016.89 1016.93 1015.92 1016.05 1016.41 1016.36 1016.32 1017.68 1018.98 1020.11 1018.53 1017.23 1016.93 1017.30 1015.41 1014.76 1014.92 1015.24 1015.67 1016.38 1016.63 1017.11
1010.77 1011.78 1012.52 1013.15 1013.82 1014.33 1014.38 1014.76 1014.94 1015.01 1015.32 1015.06 1015.29 1015.10 1014.64 1014.65 1015.01 1015.11 1014.80 1014.76 1016.60 1016.61 1016.96 1015.89 1015.68 1015.82 1015.74 1015.70 1015.63 1017.17 1018.68 1019.18 1018.16 1017.10 1018.12 1017.50 1015.90 1015.80 1015.11 1015.55 1016.39 1016.57 1016.49
1010.11 1011.20 1012.16 1012.94 1013.54 1013.79 1014.02 1014.20 1014.50 1015.06 1015.91 1015.01 1014.72 1014.46 1014.42 1014.51 1014.78 1014.87 1014.73 1014.88 1015.27 1015.63 1015.67 1015.37 1015.67 1015.70 1015.83 1015.70 1015.99 1015.73 1016.35 1017.13 1017.32 1017.83 1017.56 1017.89 1016.96 1018.23 1016.98 1016.17 1016.43 1016.52 1016.42
1009.41 1010.56 1011.56 1012.45 1013.14 1013.29 1013.60 1013.99 1014.36 1014.52 1014.65 1014.35 1014.61 1014.66 1014.58 1014.53 1014.59 1014.75 1014.78 1014.83 1015.07 1015.13 1015.27 1015.32 1015.89 1016.03 1015.81 1015.80 1015.61 1016.32 1016.20 1017.96 1018.13 1017.09 1017.03 1016.51 1016.76 1016.67 1016.57 1017.81 1017.20 1016.74 1016.28
1008.63 1009.76 1010.88 1012.02 1012.70 1013.00 1013.36 1013.71 1013.96 1014.09 1014.47 1014.70 1014.51 1015.11 1014.96 1014.96 1014.43 1014.45 1014.55 1014.79 1014.92 1015.29 1015.48 1015.53 1015.69 1015.96 1015.96 1016.00 1015.63 1015.57 1015.82 1017.00 1017.10 1017.11 1016.63 1017.29 1017.64 1017.02 1017.13 1016.00 1016.05 1015.78 1016.21
Wind_Speed
12 13 13 11 11 11 13 14 12 12 15 13 12 12 12 12 11 9 10 10 10 11 10 9 8 7 7 6 7 7 7 10 9 10 13 10 8 11 8 11 12 9 9
17 14 14 13 9 10 12 13 13 13 14 13 12 11 12 11 9 9 9 10 11 9 10 9 9 9 8 8 9 8 7 10 10 13 15 12 11 10 8 12 18 9 9
17 13 12 12 10 10 11 11 13 13 13 12 12 10 9 9 9 8 9 10 12 11 10 9 9 9 9 8 8 7 6 8 8 14 14 9 9 7 15 14 18 11 12
17 16 12 11 12 12 10 8 9 11 10 10 9 7 7 8 8 9 8 9 11 10 10 9 8 7 7 8 8 6 4 4 7 18 12 13 11 3 11 16 14 14 12
17 16 12 14 12 13 10 10 8 8 8 8 8 6 7 8 10 4 6 9 9 10 9 9 7 6 6 6 7 5 4 2 30 22 1 8 7 7 10 11 13 13 15
13 17 13 16 14 11 10 11 10 10 10 10 12 13 11 4 9 6 6 6 9 9 9 7 6 5 6 5 5 6 4 3 21 7 8 15 7 6 7 10 13 12 12
15 14 10 17 15 14 11 14 13 10 11 12 13 8 0 4 3 6 7 7 7 7 7 6 5 6 5 4 6 4 6 4 13 9 11 11 4 13 12 12 12 12 13
15 15 11 16 10 15 15 12 12 11 8 11 11 2 5 6 5 4 6 6 6 6 6 5 6 6 6 8 7 5 7 5 17 12 10 7 8 12 10 11 11 12 13
13 13 12 11 10 11 14 11 11 10 11 12 7 8 5 6 10 8 8 7 6 5 6 7 7 9 9 11 9 8 4 4 10 10 12 4 14 15 12 12 10 11 12
11 14 11 11 9 9 9 12 12 11 12 6 7 2 8 12 12 10 9 8 7 7 7 7 9 11 11 12 10 6 3 8 12 8 13 7 20 15 14 11 10 10 11
8 12 12 11 8 7 8 8 11 13 12 10 7 6 11 6 10 12 11 10 10 8 9 9 13 14 9 6 11 10 11 6 4 6 4 18 15 15 12 12 8 8 8
10 7 9 10 11 9 6 8 7 7 4 4 3 4 7 8 6 11 10 11 12 10 11 13 15 14 9 7 3 5 2 3 8 9 5 15 13 10 10 9 8 8 9
13 8 9 9 10 10 6 5 4 3 4 2 3 5 8 9 4 6 6 7 6 10 6 9 5 2 7 10 4 11 12 12 4 6 8 14 11 9 7 6 6 9 10
9 12 12 11 10 11 6 6 7 3 4 5 8 13 10 8 8 5 5 7 7 4 8 10 6 16 14 6 7 7 3 3 6 6 6 14 12 12 10 8 8 8 10
11 13 12 13 10 8 8 6 5 7 6 5 8 10 3 6 4 7 1 3 1 2 3 4 16 4 6 7 5 4 3 4 8 6 4 15 13 12 11 9 11 10 10
13 11 11 12 10 12 8 9 7 5 5 7 4 6 15 9 5 3 3 4 1 2 2 3 3 4 7 14 9 6 1 4 10 9 5 7 13 13 11 9 11 11 11
12 11 9 13 11 10 9 9 7 5 5 5 4 10 5 1 2 3 4 3 3 1 3 4 6 6 15 16 18 15 2 2 4 11 6 6 7 11 13 11 10 10 11
15 13 11 12 14 12 9 6 6 5 2 2 6 5 1 2 3 4 2 3 2 3 4 6 10 10 9 4 12 11 8 1 5 6 8 8 7 7 8 13 12 10 10
13 12 12 9 12 11 7 5 5 6 6 9 10 6 6 4 4 4 4 2 3 4 7 3 10 10 4 6 6 11 13 4 4 2 7 10 10 9 6 12 13 12 12
14 12 7 10 11 9 5 1 2 3 4 5 4 5 6 4 5 4 5 4 1 4 4 8 11 9 5 9 5 6 10 4 5 3 9 5 10 9 9 9 6 6 10
14 13 10 11 10 8 5 2 2 2 3 9 3 5 4 5 4 4 4 3 4 4 3 5 4 5 2 7 4 9 10 15 13 5 15 8 8 9 9 6 6 6 6
16 13 11 13 11 9 6 5 3 8 6 4 5 9 5 3 1 5 5 5 1 8 8 4 2 3 2 5 6 6 3 7 10 7 3 2 6 6 11 13 10 10 6
17 17 14 11 10 11 10 6 4 1 2 3 5 5 4 5 5 6 5 2 5 9 4 2 1 4 4 4 3 7 2 2 5 4 6 10 8 8 5 2 10 9 9
15 14 15 13 12 11 8 8 7 7 6 6 4 3 5 5 6 6 3 2 6 2 1 2 4 2 5 3 2 5 3 6 3 4 3 5 3 4 10 5 2 10 7
17 15 14 14 13 10 8 8 7 7 4 2 3 7 3 5 5 6 5 4 2 3 4 4 3 5 3 5 4 3 1 5 10 1 3 5 8 7 2 6 12 7 9
18 16 16 15 13 11 10 9 9 6 4 2 5 5 6 6 6 6 6 5 3 3 1 4 2 4 3 4 5 6 2 4 2 1 1 2 5 6 8 5 8 5 9
Wind_Direction
125 123 125 121 124 127 118 128 122 117 115 111 110 110 108 105 108 115 119 129 138 134 139 146 155 161 157 153 129 127 122 95 97 92 86 89 83 86 94 107 97 86 106
127 128 126 124 123 117 112 122 119 122 116 116 111 111 111 115 120 121 124 137 145 143 138 143 155 155 162 149 139 143 129 115 115 102 76 55 86 88 95 123 121 144 130
125 126 124 122 116 112 112 125 123 120 117 117 113 115 117 117 117 115 126 140 143 143 141 149 152 164 159 150 146 148 142 128 128 95 68 41 349 86 117 126 146 142 152
134 125 120 112 115 110 106 115 118 121 122 117 111 114 109 111 118 123 126 135 141 151 144 144 152 155 157 157 148 149 156 144 97 65 70 40 324 189 127 148 166 160 139
128 114 114 104 102 102 105 104 101 102 96 92 89 80 90 93 93 120 146 145 143 151 149 145 157 160 168 170 148 148 184 226 84 86 205 168 211 165 145 152 140 146 157
98 102 116 115 106 81 96 95 94 81 78 75 70 56 54 77 143 166 154 156 162 153 147 149 163 176 187 173 174 186 215 214 104 112 205 235 198 195 148 142 134 140 142
116 122 106 95 102 103 95 94 95 89 90 81 87 92 259 222 193 161 152 157 153 148 140 153 178 209 218 225 228 220 242 228 142 198 226 206 200 174 153 140 137 141 142
128 126 120 116 110 101 90 91 93 96 90 93 93 273 236 208 222 195 167 169 175 156 151 184 214 234 244 246 240 228 251 301 140 236 230 165 204 172 155 138 132 134 140
141 135 143 141 148 142 137 119 93 93 78 120 142 235 253 227 216 202 190 186 185 174 186 207 228 241 244 250 244 233 282 14 127 187 243 169 168 171 165 140 131 131 132
152 158 144 151 146 145 139 141 115 101 90 84 157 73 282 235 216 199 205 193 198 211 216 233 244 247 247 258 291 307 198 60 42 258 259 153 175 139 128 147 132 126 119
153 142 145 141 134 123 135 150 122 112 112 107 126 212 238 218 211 192 209 175 211 218 235 241 254 254 255 312 280 293 253 104 195 265 190 160 157 152 128 123 146 124 127
141 136 146 146 143 128 123 115 117 107 100 121 148 263 258 236 219 198 171 194 217 221 241 244 252 272 274 284 249 286 311 210 176 233 133 160 141 139 125 120 133 144 161
149 141 153 149 130 128 123 128 133 153 146 165 210 252 269 237 189 195 176 208 216 217 237 223 305 229 270 223 275 146 198 236 206 109 154 144 132 127 123 132 144 141 147
166 147 152 150 144 145 145 145 155 174 206 186 202 187 235 237 207 247 187 209 216 182 214 132 101 283 283 280 306 158 103 143 182 122 154 131 134 131 132 125 134 143 146
162 135 152 148 149 149 154 155 191 204 211 214 213 190 25 280 163 237 1 255 279 40 333 291 157 243 278 289 25 11 190 165 106 122 163 130 127 129 133 138 141 148 148
149 142 148 149 153 158 169 175 194 221 227 237 230 208 173 238 234 96 240 255 87 338 305 317 342 355 33 349 1 347 348 105 161 134 152 136 137 136 131 137 145 149 149
143 131 152 150 165 160 181 181 186 230 209 255 268 246 228 261 71 318 228 259 136 351 296 290 10 33 59 358 340 318 214 114 105 128 137 139 141 143 139 140 147 152 151
127 143 161 158 160 179 175 171 201 180 170 257 220 211 146 105 172 257 225 249 94 292 256 71 45 360 76 51 273 287 318 17 124 119 158 146 156 141 151 149 155 160 160
138 147 160 165 165 152 170 196 218 164 175 211 229 160 160 172 194 281 273 124 153 253 98 105 61 308 231 198 282 330 320 129 334 174 162 166 150 147 155 164 163 167 171
147 143 169 148 133 153 167 231 267 67 346 327 337 160 154 168 202 235 283 74 258 305 25 104 147 237 231 170 217 337 321 345 193 68 7 353 151 154 146 160 159 175 181
154 150 153 144 150 157 168 164 218 344 87 268 130 350 177 150 195 241 288 192 227 236 128 60 23 327 298 207 90 23 349 347 349 79 198 239 140 160 154 151 170 163 180
155 162 179 159 158 181 174 184 175 158 224 247 95 218 188 169 179 258 248 266 132 31 327 93 68 284 301 226 108 97 21 320 287 322 328 331 160 172 166 172 185 151 164
153 165 177 159 171 180 188 167 172 226 311 297 206 184 206 160 184 248 275 334 24 157 240 125 343 332 302 355 69 134 151 303 292 50 5 356 3 349 102 144 168 171 148
157 165 156 170 179 202 205 171 188 184 153 230 183 197 170 177 190 219 241 257 250 3 35 293 24 326 345 328 204 90 147 149 195 45 115 237 99 316 360 49 354 120 141
159 167 162 171 176 202 204 187 188 215 225 197 63 59 354 175 199 227 213 244 263 312 335 40 18 345 349 325 332 163 86 92 278 123 237 305 27 5 252 151 228 161 160
160 170 164 174 178 202 202 208 225 222 211 352 108 54 310 266 195 214 218 201 205 239 312 314 195 272 310 314 320 309 60 133 316 179 93 314 175 242 231 194 184 200 143